When you browse on this site, cookies collect data to enhance your experience and personalize the content and advertising you see.
Visit our Privacy Policy to learn more. By continuing to use the site, you agree to this use of cookies and data.
  • In United Kingdom
  • List of Countries
  • For 7 days
  • Water Temperature
  • Weather Map
  • Weather Widgets
  • user-avatar
    Login

    Hourly Weather Pontypridd

    Today, 9 April, Thursday

    Time Temperature Precipitation Wind Pressure Humidity
    00:00 +12°C° 0 mm 2 mps 757 mmHg 88%
    01:00 +12°C° 0 mm 2 mps 757 mmHg 88%
    02:00 +10°C° 0 mm 2 mps 757 mmHg 89%
    03:00 +10°C° 0 mm 2 mps 757 mmHg 90%
    04:00 +10°C° 0 mm 2 mps 757 mmHg 90%
    05:00 +9°C° 0 mm 2 mps 757 mmHg 90%
    06:00 +9°C° 0 mm 3 mps 757 mmHg 90%
    07:00 +11°C° 0 mm 3 mps 757 mmHg 86%
    08:00 +13°C° 0 mm 3 mps 757 mmHg 81%
    09:00 +14°C° 0 mm 3 mps 758 mmHg 77%
    10:00 +16°C° 0 mm 3 mps 758 mmHg 74%
    11:00 +17°C° 0 mm 3 mps 758 mmHg 71%
    12:00 +19°C° 0 mm 3 mps 758 mmHg 68%
    13:00 +19°C° 0 mm 3 mps 757 mmHg 67%
    14:00 +19°C° 0 mm 3 mps 757 mmHg 66%
    15:00 +20°C° 0 mm 3 mps 757 mmHg 65%
    16:00 +19°C° 0 mm 3 mps 757 mmHg 70%
    17:00 +18°C° 0 mm 2 mps 757 mmHg 75%
    18:00 +17°C° 0 mm 2 mps 757 mmHg 80%
    19:00 +16°C° 0 mm 2 mps 757 mmHg 83%
    20:00 +15°C° 0 mm 2 mps 757 mmHg 86%
    21:00 +14°C° 0 mm 2 mps 757 mmHg 89%
    22:00 +13°C° 0 mm 2 mps 758 mmHg 89%
    23:00 +13°C° 0 mm 2 mps 758 mmHg 90%

    Tomorrow, 10 April, Friday

    Time Temperature Precipitation Wind Pressure Humidity
    00:00 +12°C° 0 mm 2 mps 758 mmHg 90%
    01:00 +11°C° 0 mm 3 mps 758 mmHg 91%
    02:00 +10°C° 0 mm 3 mps 757 mmHg 91%
    03:00 +10°C° 0 mm 3 mps 757 mmHg 91%
    04:00 +10°C° 0 mm 3 mps 757 mmHg 89%
    05:00 +9°C° 0 mm 3 mps 757 mmHg 87%
    06:00 +9°C° 0 mm 3 mps 757 mmHg 85%
    07:00 +11°C° 0 mm 3 mps 757 mmHg 82%
    08:00 +12°C° 0 mm 3 mps 757 mmHg 78%
    09:00 +14°C° 0 mm 3 mps 757 mmHg 74%
    10:00 +16°C° 0 mm 3 mps 757 mmHg 72%
    11:00 +17°C° 0 mm 3 mps 757 mmHg 70%
    12:00 +19°C° 0 mm 3 mps 757 mmHg 67%
    13:00 +19°C° 0 mm 3 mps 757 mmHg 67%
    14:00 +20°C° 0 mm 3 mps 756 mmHg 66%
    15:00 +20°C° 0 mm 3 mps 756 mmHg 66%
    16:00 +19°C° 0 mm 3 mps 756 mmHg 70%
    17:00 +18°C° 0 mm 3 mps 756 mmHg 75%
    18:00 +17°C° 0 mm 2 mps 756 mmHg 80%
    19:00 +16°C° 0 mm 2 mps 756 mmHg 84%
    20:00 +15°C° 0 mm 2 mps 756 mmHg 88%
    21:00 +13°C° 0 mm 2 mps 756 mmHg 91%
    22:00 +12°C° 0 mm 2 mps 756 mmHg 90%
    23:00 +12°C° 0 mm 2 mps 756 mmHg 89%

    Day after tomorrow, 11 April, Saturday

    Time Temperature Precipitation Wind Pressure Humidity
    00:00 +10°C° 0 mm 2 mps 756 mmHg 88%
    01:00 +10°C° 0 mm 2 mps 756 mmHg 88%
    02:00 +11°C° 0 mm 1 mps 756 mmHg 87%
    03:00 +10°C° 0 mm 1 mps 756 mmHg 87%
    04:00 +10°C° 0 mm 1 mps 756 mmHg 86%
    05:00 +10°C° 0 mm 1 mps 756 mmHg 86%
    06:00 +11°C° 0 mm 1 mps 756 mmHg 86%
    07:00 +13°C° 0 mm 1 mps 756 mmHg 81%
    08:00 +15°C° 0 mm 1 mps 756 mmHg 77%
    09:00 +18°C° 0 mm 1 mps 756 mmHg 72%
    10:00 +19°C° 0.1 mm 1 mps 756 mmHg 69%
    11:00 +20°C° 0.1 mm 1 mps 756 mmHg 65%
    12:00 +20°C° 0.1 mm 2 mps 756 mmHg 61%
    13:00 +20°C° 0.1 mm 2 mps 756 mmHg 61%
    14:00 +20°C° 0.1 mm 2 mps 756 mmHg 60%
    15:00 +20°C° 0.1 mm 3 mps 755 mmHg 59%
    16:00 +19°C° 0.1 mm 2 mps 755 mmHg 66%
    17:00 +18°C° 0.1 mm 2 mps 755 mmHg 73%
    18:00 +17°C° 0.1 mm 2 mps 755 mmHg 79%
    19:00 +15°C° 0 mm 2 mps 755 mmHg 83%
    20:00 +14°C° 0 mm 2 mps 755 mmHg 86%
    21:00 +13°C° 0 mm 2 mps 755 mmHg 90%
    22:00 +12°C° 0 mm 1 mps 755 mmHg 90%
    23:00 +12°C° 0 mm 1 mps 755 mmHg 89%

    12 April, Sunday

    Time Temperature Precipitation Wind Pressure Humidity
    00:00 +11°C° 0 mm 1 mps 754 mmHg 89%
    01:00 +11°C° 0 mm 1 mps 754 mmHg 89%
    02:00 +10°C° 0 mm 1 mps 753 mmHg 90%
    03:00 +9°C° 0 mm 0 mps 752 mmHg 90%
    04:00 +9°C° 0 mm 0 mps 752 mmHg 91%
    05:00 +9°C° 0 mm 0 mps 752 mmHg 92%
    06:00 +10°C° 0 mm 1 mps 751 mmHg 92%
    07:00 +11°C° 0 mm 1 mps 751 mmHg 88%
    08:00 +13°C° 0 mm 1 mps 750 mmHg 84%
    09:00 +15°C° 0 mm 2 mps 750 mmHg 79%
    10:00 +16°C° 0.3 mm 2 mps 749 mmHg 75%
    11:00 +17°C° 0.3 mm 2 mps 749 mmHg 72%
    12:00 +18°C° 0.3 mm 3 mps 748 mmHg 68%
    13:00 +18°C° 0.5 mm 3 mps 748 mmHg 67%
    14:00 +18°C° 0.5 mm 3 mps 747 mmHg 66%
    15:00 +18°C° 0.5 mm 3 mps 746 mmHg 65%
    16:00 +17°C° 0.3 mm 3 mps 746 mmHg 70%
    17:00 +17°C° 0.3 mm 3 mps 746 mmHg 75%
    18:00 +16°C° 0.3 mm 2 mps 745 mmHg 80%
    19:00 +14°C° 0.1 mm 2 mps 746 mmHg 82%
    20:00 +13°C° 0.1 mm 2 mps 746 mmHg 85%
    21:00 +12°C° 0.1 mm 2 mps 746 mmHg 87%
    22:00 +11°C° 0 mm 3 mps 746 mmHg 89%
    23:00 +11°C° 0 mm 3 mps 746 mmHg 90%

    13 April, Monday

    Time Temperature Precipitation Wind Pressure Humidity
    00:00 +10°C° 0 mm 3 mps 747 mmHg 92%
    01:00 +9°C° 0 mm 5 mps 747 mmHg 93%
    02:00 +9°C° 0 mm 6 mps 747 mmHg 94%
    03:00 +9°C° 0 mm 7 mps 747 mmHg 95%
    04:00 +7°C° 0 mm 8 mps 748 mmHg 94%
    05:00 +7°C° 0 mm 9 mps 749 mmHg 93%
    06:00 +6°C° 0 mm 10 mps 749 mmHg 93%
    07:00 +6°C° 0 mm 10 mps 750 mmHg 90%
    08:00 +7°C° 0 mm 11 mps 751 mmHg 87%
    09:00 +7°C° 0 mm 11 mps 751 mmHg 85%
    10:00 +8°C° 0 mm 11 mps 752 mmHg 80%
    11:00 +9°C° 0 mm 11 mps 753 mmHg 74%
    12:00 +11°C° 0 mm 10 mps 753 mmHg 69%
    13:00 +11°C° 0 mm 10 mps 753 mmHg 70%
    14:00 +9°C° 0 mm 10 mps 754 mmHg 70%
    15:00 +9°C° 0 mm 10 mps 754 mmHg 70%
    16:00 +8°C° 0 mm 10 mps 754 mmHg 69%
    17:00 +7°C° 0 mm 10 mps 755 mmHg 69%
    18:00 +6°C° 0 mm 9 mps 755 mmHg 68%
    19:00 +5°C° 0 mm 9 mps 755 mmHg 68%
    20:00 +2°C° 0 mm 10 mps 756 mmHg 69%
    21:00 +1°C° 0 mm 10 mps 756 mmHg 70%
    22:00 +1°C° 0 mm 10 mps 757 mmHg 75%
    23:00 0°C° 0 mm 9 mps 757 mmHg 80%

    14 April, Tuesday

    Time Temperature Precipitation Wind Pressure Humidity
    00:00 0°C° 0 mm 9 mps 757 mmHg 85%
    01:00 0°C° 0 mm 9 mps 757 mmHg 82%
    02:00 0°C° 0 mm 10 mps 757 mmHg 79%
    03:00 -2°C° 0 mm 10 mps 756 mmHg 77%
    04:00 -2°C° 0 mm 10 mps 756 mmHg 75%
    05:00 -2°C° 0 mm 10 mps 756 mmHg 73%
    06:00 -2°C° 0 mm 10 mps 756 mmHg 71%
    07:00 0°C° 0 mm 10 mps 756 mmHg 69%
    08:00 +2°C° 0 mm 10 mps 756 mmHg 66%
    09:00 +3°C° 0 mm 10 mps 756 mmHg 64%
    10:00 +5°C° 0 mm 10 mps 755 mmHg 62%
    11:00 +7°C° 0 mm 10 mps 755 mmHg 61%
    12:00 +8°C° 0 mm 10 mps 755 mmHg 60%
    13:00 +8°C° 0 mm 10 mps 754 mmHg 60%
    14:00 +9°C° 0 mm 10 mps 754 mmHg 60%
    15:00 +9°C° 0 mm 10 mps 753 mmHg 60%
    16:00 +8°C° 0 mm 9 mps 752 mmHg 62%
    17:00 +7°C° 0 mm 9 mps 752 mmHg 63%
    18:00 +6°C° 0 mm 9 mps 751 mmHg 64%
    19:00 +5°C° 0 mm 9 mps 752 mmHg 66%
    20:00 +3°C° 0 mm 9 mps 752 mmHg 67%
    21:00 +2°C° 0 mm 9 mps 752 mmHg 68%
    22:00 +1°C° 0 mm 9 mps 752 mmHg 71%
    23:00 0°C° 0 mm 9 mps 751 mmHg 74%
    Show more